sat.trackr.live / text

‹ back to catalog

STARLINK-1446

NORAD 45663 · 2020-035G

PAYLOAD ACTIVE UNKNOWN

§ Identity

Operator
Country
US
Launch date
2020-06-04
Launch site
AFETR
Launch vehicle
Mass (kg)
RCS (m²)

Purposes: comms

External: N2YO · Heavens-Above · Gunter

§ Orbital elements

Epoch: 2026-09-19T04:04:18.858144Z

Period
92.68 min
Inclination
53.0170°
Eccentricity
0.0003722
Mean motion
15.53654945 rev/d
Perigee alt
403.5 km
Apogee alt
408.6 km
Semi-major
6,784.2 km
B*
4.6349e-4
RAAN
153.0783°
Arg perigee
129.5757°
Mean anomaly
230.5582°
Rev number
34,964

§ Raw data

STARLINK-14461 45663U 20035G   26262.16966271  .00029762  00000+0  46349-3 0  99942 45663  53.0170 153.0783 0003722 129.5757 230.5582 15.53654945349647

JSON: /api/v1/satellites/45663 · /tle

For live sub-satellite position, see the globe view (requires WebGL).

§ Visibility from observer

Set your observer location to see the next 7 days of passes ≥ 10°. The values pass through the URL so the page stays shareable.

No JS? Fill the form by hand. The geolocation button needs JavaScript.